Location: Bushey
(51.6333°N, 0.3667°W)
Time: 02:03:11
(UTC+00:00)

ERS-2 - Pass Details

Date: 03 March 2021
Orbit: 492 x 496 km, 98.6° (Epoch: 11 April)

Event Time Altitude Azimuth Distance (km) Brightness Sun altitude
Rises 18:21:47 0° 23° (NNE) 2,596 5.5 -6.4°
Reaches altitude 10° 18:24:04 10° 35° (NE) 1,708 4.5 -6.8°
Maximum altitude 18:27:19 30° 97° (E) 920 2.9 -7.3°
Drops below altitude 10° 18:30:34 10° 160° (SSE) 1,695 4.6 -7.8°
Sets 18:32:49 0° 172° (S) 2,573 5.7 -8.1°
